This demonstration page uses our WeatherBlox Daily Observations layout. Learn more.

Left ArrowRight Arrow

41.86663, -103.66717

Hourly Observations for June 8, 2021

Temp ( °F °C ) Dew Point ( °F °C ) Humidity (%) Winds ( mph kmh ) Pressure ( in mb ) Visibility ( mi km ) Precip ( " mm )
12:53 am 00:53 Clear 71 21.7 52 11.1 51 51 E 12 19 29.66 1004 10 16 N/A
1:53 am 01:53 Clear 68 20 57 13.9 68 68 E 7 11 29.66 1005 10 16 N/A
2:53 am 02:53 Clear 66 18.9 57 13.9 73 73 E 9 15 29.67 1005 10 16 N/A
3:53 am 03:53 Clear 64 17.8 59 15 84 84 E 7 11 29.68 1005 10 16 N/A
4:53 am 04:53 Clear 64 17.8 59 15 84 84 ESE 10 17 29.70 1006 10 16 N/A
5:53 am 05:53 Sunny with Mist and Fog 63 17.2 60 15.6 90 90 SE 8 13 29.72 1006 5 8 N/A
6:53 am 06:53 Sunny with Mist and Fog 65 18.3 61 16.1 87 87 ESE 12 19 29.74 1007 6 10 N/A
7:53 am 07:53 Sunny 71 21.7 60 15.6 68 68 ESE 14 22 29.74 1007 10 16 N/A
8:53 am 08:53 Sunny 76 24.4 58 14.4 54 54 ESE 12 19 29.73 1007 10 16 N/A
9:53 am 09:53 Sunny 80 26.7 61 16.1 52 52 ESE 10 17 29.73 1007 10 16 N/A
10:53 am 10:53 Sunny 86 30 63 17.2 46 46 ESE 14 22 29.71 1006 10 16 N/A
11:53 am 11:53 Sunny 92 33.3 55 12.8 29 29 S 17 28 29.70 1006 10 16 N/A
12:53 pm 12:53 Sunny 95 35 52 11.1 23 23 SSE 18 30 29.69 1005 10 16 N/A
1:53 pm 13:53 Sunny 96 35.6 51 10.6 22 22 S 22 35 29.68 1005 10 16 N/A
2:53 pm 14:53 Sunny 96 35.6 53 11.7 23 23 SSE 20 31 29.66 1005 10 16 N/A
3:53 pm 15:53 Sunny 96 35.6 58 14.4 28 28 SE 21 33 29.65 1004 10 16 N/A
4:53 pm 16:53 Mostly Sunny 94 34.4 58 14.4 30 30 SE 25 41 29.65 1004 10 16 N/A
5:53 pm 17:53 Sunny 92 33.3 58 14.4 32 32 SSE 24 39 29.65 1004 10 16 N/A
6:53 pm 18:53 Sunny 89 31.7 59 15 36 36 SE 23 37 29.66 1005 10 16 N/A
7:53 pm 19:53 Sunny 85 29.4 59 15 42 42 SE 16 26 29.67 1005 10 16 N/A
8:53 pm 20:53 Clear 83 28.3 60 15.6 46 46 SE 17 28 29.68 1005 10 16 N/A
9:53 pm 21:53 Partly Cloudy with Nearby Thunderstorms 80 26.7 61 16.1 52 52 S 15 24 29.75 1007 10 16 N/A
10:06 pm 22:06 Partly Cloudy with Nearby Thunderstorms 82 27.8 42 5.6 24 24 SSW 10 17 29.63 1003 10 16 N/A
10:34 pm 22:34 Clear 78 25.6 46 7.8 32 32 ESE 8 13 29.64 1004 10 16 N/A
10:53 pm 22:53 Partly Cloudy 80 26.7 44 6.7 28 28 NW 6 9 29.72 1007 10 16 N/A
11:53 pm 23:53 Cloudy with Light Rain 80 26.7 45 7.2 29 29 E 16 26 29.80 1009 10 16 0.00 0.00

Powered by AerisWeather